,,Stat6,,Stat2,,Stat8,,Stat9,,Stat10,,Wind1,,Wind1,
time,status,PA1M_AVG,status,PR1M_SUM,status,RH1M_AVG,status,SR1M_AVG,status,TA1M_AVG,status,W1dAve1m,status,W1sAve1m,
2005-02-01, 00:00:00,VALID,918.428,VALID,0,VALID,99.4344,VALID,-0.0169808,VALID,20.3762,VALID,132,VALID,0.696039,
2005-02-01, 00:01:00,VALID,918.427,VALID,0,VALID,99.5107,VALID,-0.0339617,VALID,20.3737,VALID,131,VALID,1.03906,
2005-02-01, 00:02:00,VALID,918.409,VALID,0,VALID,99.6035,VALID,-0.0509425,VALID,20.3471,VALID,131,VALID,0.817336,
2005-02-01, 00:03:00,VALID,918.415,VALID,0,VALID,99.737,VALID,0,VALID,20.3377,VALID,142,VALID,0.365625,
2005-02-01, 00:04:00,VALID,918.4,VALID,0,VALID,99.7052,VALID,-0.0339617,VALID,20.3183,VALID,128,VALID,0.976004,
2005-02-01, 00:05:00,VALID,918.42,VALID,0,VALID,99.7205,VALID,-0.0169808,VALID,20.2892,VALID,94,VALID,0.815278,
2005-02-01, 00:06:00,VALID,918.425,VALID,0,VALID,99.8324,VALID,0,VALID,20.247,VALID,95,VALID,0.489453,
2005-02-01, 00:07:00,VALID,918.432,VALID,0,VALID,99.9641,VALID,-0.0169808,VALID,20.244,VALID,83,VALID,0.524528,
2005-02-01, 00:08:00,VALID,918.435,VALID,0,VALID,100,VALID,-0.0169808,VALID,20.2373,VALID,49,VALID,0.84266,
2005-02-01, 00:09:00,VALID,918.449,VALID,0,VALID,100,VALID,0,VALID,20.2443,VALID,58,VALID,0.963021,
2005-02-01, 00:10:00,VALID,918.45,VALID,0,VALID,100,VALID,0,VALID,20.2276,VALID,99,VALID,0.611753,
2005-02-01, 00:11:00,VALID,918.448,VALID,0,VALID,99.9908,VALID,-0.0339617,VALID,20.2047,VALID,96,VALID,0.536204,
2005-02-01, 00:12:00,VALID,918.439,VALID,0,VALID,100,VALID,-0.0169808,VALID,20.2052,VALID,81,VALID,0.52763,
2005-02-01, 00:13:00,VALID,918.439,VALID,0,VALID,100,VALID,0,VALID,20.212,VALID,52,VALID,0.427326,
2005-02-01, 00:14:00,VALID,918.439,VALID,0,VALID,100,VALID,-0.0169808,VALID,20.2152,VALID,31,VALID,0.573219,
2005-02-01, 00:15:00,VALID,918.425,VALID,0,VALID,100,VALID,0,VALID,20.2085,VALID,31,VALID,0.199041,
2005-02-01, 00:16:00,VALID,918.421,VALID,0,VALID,100,VALID,-0.0169808,VALID,20.2149,VALID,28,VALID,0.540153,
2005-02-01, 00:17:00,VALID,918.43,VALID,0,VALID,100,VALID,-0.0169808,VALID,20.2276,VALID,28,VALID,0.363281,
2005-02-01, 00:18:00,VALID,918.444,VALID,0,VALID,100,VALID,0,VALID,20.2375,VALID,28,VALID,0.458398,
2005-02-01, 00:19:00,VALID,918.449,VALID,0,VALID,100,VALID,-0.0169808,VALID,20.2174,VALID,27,VALID,0.687674,
2005-02-01, 00:20:00,VALID,918.449,VALID,0,VALID,100,VALID,-0.0169808,VALID,20.2244,VALID,25,VALID,0.994549,
2005-02-01, 00:21:00,VALID,918.456,VALID,0,VALID,100,VALID,-0.0339617,VALID,20.2122,VALID,22,VALID,0.90407,
2005-02-01, 00:22:00,VALID,918.438,VALID,0,VALID,100,VALID,-0.0849042,VALID,20.1896,VALID,32,VALID,0.774346,
2005-02-01, 00:23:00,VALID,918.428,VALID,0,VALID,100,VALID,-0.0679233,VALID,20.1563,VALID,46,VALID,0.72923,
2005-02-01, 00:24:00,VALID,918.42,VALID,0,VALID,100,VALID,-0.0679233,VALID,20.1476,VALID,48,VALID,0.492188,
2005-02-01, 00:25:00,VALID,918.408,VALID,0,VALID,100,VALID,-0.0339617,VALID,20.1407,VALID,55,VALID,0.741815,
2005-02-01, 00:26:00,VALID,918.413,VALID,0,VALID,100,VALID,-0.0169808,VALID,20.1384,VALID,62,VALID,0.604936,
2005-02-01, 00:27:00,VALID,918.394,VALID,0,VALID,100,VALID,-0.0339617,VALID,20.0984,VALID,62,VALID,0.540365,
2005-02-01, 00:28:00,VALID,918.408,VALID,0,VALID,100,VALID,-0.0169808,VALID,20.0887,VALID,62,VALID,0.450347,
2005-02-01, 00:29:00,VALID,918.414,VALID,0,VALID,100,VALID,-0.0339617,VALID,20.0858,VALID,62,VALID,0.330788,
2005-02-01, 00:30:00,VALID,918.402,VALID,0,VALID,100,VALID,0,VALID,20.086,VALID,62,VALID,0.11849,
2005-02-01, 00:31:00,VALID,918.402,VALID,0,VALID,100,VALID,0,VALID,20.086,VALID,62,VALID,0.00213068,
2005-02-01, 00:32:00,VALID,918.403,VALID,0,VALID,100,VALID,0,VALID,20.092,VALID,62,VALID,0.100586,
2005-02-01, 00:33:00,VALID,918.419,VALID,0,VALID,100,VALID,-0.0169808,VALID,20.1248,VALID,62,VALID,0.0774306,
2005-02-01, 00:34:00,VALID,918.413,VALID,0,VALID,100,VALID,0,VALID,20.1474,VALID,60,VALID,0.352834,
2005-02-01, 00:35:00,VALID,918.401,VALID,0,VALID,100,VALID,-0.0679233,VALID,20.1578,VALID,60,VALID,0.210366,
2005-02-01, 00:36:00,VALID,918.407,VALID,0,VALID,100,VALID,-0.0169808,VALID,20.1479,VALID,62,VALID,0.412642,
2005-02-01, 00:37:00,VALID,918.401,VALID,0,VALID,100,VALID,0,VALID,20.1347,VALID,70,VALID,0.852095,
2005-02-01, 00:38:00,VALID,918.397,VALID,0,VALID,100,VALID,-0.0169808,VALID,20.0925,VALID,76,VALID,0.679155,
2005-02-01, 00:39:00,VALID,918.396,VALID,0,VALID,100,VALID,-0.0509425,VALID,20.0532,VALID,93,VALID,0.734747,
2005-02-01, 00:40:00,VALID,918.392,VALID,0,VALID,100,VALID,-0.0339617,VALID,20.047,VALID,120,VALID,0.778232,
2005-02-01, 00:41:00,VALID,918.391,VALID,0,VALID,100,VALID,-0.0339617,VALID,20.0179,VALID,117,VALID,0.749132,
2005-02-01, 00:42:00,VALID,918.395,VALID,0,VALID,100,VALID,-0.0339617,VALID,20.0023,VALID,116,VALID,0.496289,
2005-02-01, 00:43:00,VALID,918.395,VALID,0,VALID,100,VALID,-0.0509425,VALID,19.9924,VALID,116,VALID,0.175327,
2005-02-01, 00:44:00,VALID,918.398,VALID,0,VALID,100,VALID,-0.0509425,VALID,20.0023,VALID,111,VALID,0.287972,
2005-02-01, 00:45:00,VALID,918.403,VALID,0,VALID,100,VALID,-0.0509425,VALID,19.9891,VALID,101,VALID,0.340376,
2005-02-01, 00:46:00,VALID,918.403,VALID,0,VALID,100,VALID,-0.0169808,VALID,19.9765,VALID,89,VALID,0.438772,
2005-02-01, 00:47:00,VALID,918.396,VALID,0,VALID,100,VALID,-0.0339617,VALID,19.9727,VALID,62,VALID,0.620117,
2005-02-01, 00:48:00,VALID,918.387,VALID,0,VALID,100,VALID,-0.0339617,VALID,19.9703,VALID,47,VALID,0.786719,
2005-02-01, 00:49:00,VALID,918.391,VALID,0,VALID,100,VALID,0,VALID,19.9797,VALID,73,VALID,0.812686,
2005-02-01, 00:50:00,VALID,918.378,VALID,0,VALID,100,VALID,-0.0339617,VALID,19.9536,VALID,96,VALID,0.762607,
2005-02-01, 00:51:00,VALID,918.367,VALID,0,VALID,100,VALID,-0.0339617,VALID,19.9253,VALID,93,VALID,0.887674,
2005-02-01, 00:52:00,VALID,918.34,VALID,0,VALID,100,VALID,-0.0339617,VALID,19.8796,VALID,86,VALID,0.59375,
2005-02-01, 00:53:00,VALID,918.322,VALID,0,VALID,100,VALID,0,VALID,19.8473,VALID,87,VALID,0.522693,
2005-02-01, 00:54:00,VALID,918.293,VALID,0,VALID,100,VALID,-0.0339617,VALID,19.8239,VALID,91,VALID,0.865234,
2005-02-01, 00:55:00,VALID,918.28,VALID,0,VALID,100,VALID,-0.0509425,VALID,19.8217,VALID,98,VALID,0.892857,
2005-02-01, 00:56:00,VALID,918.279,VALID,0,VALID,100,VALID,-0.0169808,VALID,19.8023,VALID,92,VALID,0.671875,
2005-02-01, 00:57:00,VALID,918.266,VALID,0,VALID,100,VALID,-0.0339617,VALID,19.7832,VALID,96,VALID,1.05971,
2005-02-01, 00:58:00,VALID,918.266,VALID,0,VALID,100,VALID,-0.0169808,VALID,19.7566,VALID,110,VALID,1.18211,
2005-02-01, 00:59:00,VALID,918.239,VALID,0,VALID,100,VALID,-0.0509425,VALID,19.7375,VALID,91,VALID,0.844122,
2005-02-01, 01:00:00,VALID,918.215,VALID,0,VALID,100,VALID,-0.0169808,VALID,19.7248,VALID,121,VALID,1.18824,
2005-02-01, 01:01:00,VALID,918.173,VALID,0,VALID,100,VALID,0,VALID,19.7119,VALID,121,VALID,0.558036,
2005-02-01, 01:02:00,VALID,918.145,VALID,0,VALID,100,VALID,-0.0679233,VALID,19.7122,VALID,109,VALID,1.03981,
2005-02-01, 01:03:00,VALID,918.11,VALID,0,VALID,100,VALID,-0.0169808,VALID,19.6766,VALID,116,VALID,0.96224,
2005-02-01, 01:04:00,VALID,918.092,VALID,0,VALID,100,VALID,-0.0169808,VALID,19.6538,VALID,101,VALID,0.957711,
2005-02-01, 01:05:00,VALID,918.08,VALID,0,VALID,100,VALID,-0.0169808,VALID,19.6344,VALID,93,VALID,0.618304,
2005-02-01, 01:06:00,VALID,918.082,VALID,0,VALID,100,VALID,0,VALID,19.625,VALID,110,VALID,0.680959,
2005-02-01, 01:07:00,VALID,918.07,VALID,0,VALID,100,VALID,0,VALID,19.589,VALID,107,VALID,0.931868,
2005-02-01, 01:08:00,VALID,918.057,VALID,0,VALID,100,VALID,-0.0169808,VALID,19.5659,VALID,110,VALID,0.786399,
2005-02-01, 01:09:00,VALID,918.041,VALID,0,VALID,100,VALID,0,VALID,19.5698,VALID,120,VALID,0.75625,
2005-02-01, 01:10:00,VALID,918.024,VALID,0,VALID,100,VALID,-0.0339617,VALID,19.55,VALID,123,VALID,0.738281,
2005-02-01, 01:11:00,VALID,918.012,VALID,0,VALID,100,VALID,-0.0509425,VALID,19.5338,VALID,124,VALID,1.09535,
2005-02-01, 01:12:00,VALID,917.999,VALID,0,VALID,100,VALID,0,VALID,19.5045,VALID,118,VALID,0.98383,
2005-02-01, 01:13:00,VALID,917.992,VALID,0,VALID,100,VALID,-0.0679233,VALID,19.4988,VALID,121,VALID,0.907366,
2005-02-01, 01:14:00,VALID,917.978,VALID,0,VALID,100,VALID,-0.0849042,VALID,19.4859,VALID,110,VALID,1.02001,
2005-02-01, 01:15:00,VALID,917.97,VALID,0,VALID,100,VALID,-0.0509425,VALID,19.4697,VALID,116,VALID,0.795313,
2005-02-01, 01:16:00,VALID,917.944,VALID,0,VALID,100,VALID,-0.0339617,VALID,19.4697,VALID,112,VALID,0.864099,
2005-02-01, 01:17:00,VALID,917.924,VALID,0,VALID,100,VALID,-0.0339617,VALID,19.4794,VALID,118,VALID,0.842416,
2005-02-01, 01:18:00,VALID,917.894,VALID,0,VALID,100,VALID,-0.0509425,VALID,19.4762,VALID,134,VALID,1.24981,
2005-02-01, 01:19:00,VALID,917.875,VALID,0,VALID,100,VALID,0,VALID,19.4794,VALID,113,VALID,1.11737,
2005-02-01, 01:20:00,VALID,917.876,VALID,0,VALID,100,VALID,0.0169808,VALID,19.4663,VALID,126,VALID,0.861607,
2005-02-01, 01:21:00,VALID,917.859,VALID,0,VALID,100,VALID,0.0849042,VALID,19.4558,VALID,114,VALID,0.715402,
2005-02-01, 01:22:00,VALID,917.845,VALID,0,VALID,100,VALID,0.0509425,VALID,19.4556,VALID,111,VALID,1.05293,
2005-02-01, 01:23:00,VALID,917.846,VALID,0,VALID,100,VALID,0.0849042,VALID,19.4526,VALID,115,VALID,0.55785,
2005-02-01, 01:24:00,VALID,917.83,VALID,0,VALID,100,VALID,0.0509425,VALID,19.4429,VALID,137,VALID,0.602834,
2005-02-01, 01:25:00,VALID,917.828,VALID,0,VALID,100,VALID,0.0679233,VALID,19.4365,VALID,106,VALID,0.948361,
2005-02-01, 01:26:00,VALID,917.819,VALID,0,VALID,100,VALID,0.0339617,VALID,19.4206,VALID,91,VALID,0.430556,
2005-02-01, 01:27:00,VALID,917.81,VALID,0,VALID,100,VALID,0.0509425,VALID,19.4074,VALID,94,VALID,0.656441,
2005-02-01, 01:28:00,VALID,917.816,VALID,0,VALID,100,VALID,0.0509425,VALID,19.4042,VALID,117,VALID,0.789236,
2005-02-01, 01:29:00,VALID,917.825,VALID,0,VALID,100,VALID,0.0679233,VALID,19.4178,VALID,119,VALID,0.155035,
2005-02-01, 01:30:00,VALID,917.835,VALID,0,VALID,100,VALID,0.0509425,VALID,19.4208,VALID,116,VALID,0.0685764,
2005-02-01, 01:31:00,VALID,917.832,VALID,0,VALID,100,VALID,0.0849042,VALID,19.4305,VALID,49,VALID,0.385352,
2005-02-01, 01:32:00,VALID,917.831,VALID,0,VALID,100,VALID,0.0679233,VALID,19.4136,VALID,6,VALID,0.306818,
2005-02-01, 01:33:00,VALID,917.815,VALID,0,VALID,100,VALID,0.0849042,VALID,19.4303,VALID,22,VALID,0.491997,
2005-02-01, 01:34:00,VALID,917.817,VALID,0,VALID,100,VALID,0.0169808,VALID,19.4305,VALID,39,VALID,0.459794,
2005-02-01, 01:35:00,VALID,917.809,VALID,0,VALID,100,VALID,-0.0169808,VALID,19.4245,VALID,66,VALID,0.495477,
2005-02-01, 01:36:00,VALID,917.795,VALID,0,VALID,100,VALID,-0.0509425,VALID,19.3895,VALID,85,VALID,0.256696,
2005-02-01, 01:37:00,VALID,917.798,VALID,0,VALID,100,VALID,-0.0849042,VALID,19.3639,VALID,86,VALID,0.276456,
2005-02-01, 01:38:00,VALID,917.789,VALID,0,VALID,100,VALID,-0.0169808,VALID,19.3411,VALID,86,VALID,0.133203,
2005-02-01, 01:39:00,VALID,917.782,VALID,0,VALID,100,VALID,-0.0509425,VALID,19.3386,VALID,86,VALID,0.0535974,
2005-02-01, 01:40:00,VALID,917.756,VALID,0,VALID,100,VALID,-0.0169808,VALID,19.3281,VALID,86,VALID,0.127208,
2005-02-01, 01:41:00,VALID,917.75,VALID,0,VALID,100,VALID,-0.0509425,VALID,19.3187,VALID,86,VALID,0.202785,
2005-02-01, 01:42:00,VALID,917.738,VALID,0,VALID,100,VALID,-0.0169808,VALID,19.3058,VALID,90,VALID,0.281441,
2005-02-01, 01:43:00,VALID,917.75,VALID,0,VALID,100,VALID,-0.0339617,VALID,19.3023,VALID,95,VALID,0.416903,
2005-02-01, 01:44:00,VALID,917.751,VALID,0,VALID,100,VALID,-0.0169808,VALID,19.3028,VALID,99,VALID,0.344322,
2005-02-01, 01:45:00,VALID,917.758,VALID,0,VALID,100,VALID,-0.0339617,VALID,19.2998,VALID,148,VALID,0.521723,
2005-02-01, 01:46:00,VALID,917.736,VALID,0,VALID,100,VALID,-0.0509425,VALID,19.28,VALID,135,VALID,0.358984,
2005-02-01, 01:47:00,VALID,917.738,VALID,0,VALID,100,VALID,-0.0169808,VALID,19.28,VALID,156,VALID,0.485978,
2005-02-01, 01:48:00,VALID,917.74,VALID,0,VALID,100,VALID,-0.0679233,VALID,19.2834,VALID,143,VALID,0.463601,
2005-02-01, 01:49:00,VALID,917.745,VALID,0,VALID,100,VALID,-0.0679233,VALID,19.2668,VALID,138,VALID,0.533381,
2005-02-01, 01:50:00,VALID,917.738,VALID,0,VALID,100,VALID,-0.0509425,VALID,19.2742,VALID,141,VALID,0.750545,
2005-02-01, 01:51:00,VALID,917.723,VALID,0,VALID,100,VALID,-0.0849042,VALID,19.274,VALID,133,VALID,0.679332,
2005-02-01, 01:52:00,VALID,917.718,VALID,0,VALID,100,VALID,-0.0509425,VALID,19.2638,VALID,127,VALID,0.770712,
2005-02-01, 01:53:00,VALID,917.688,VALID,0,VALID,100,VALID,-0.0849042,VALID,19.2608,VALID,133,VALID,0.841751,
2005-02-01, 01:54:00,VALID,917.66,VALID,0,VALID,100,VALID,-0.0169808,VALID,19.2544,VALID,148,VALID,1.02934,
2005-02-01, 01:55:00,VALID,917.646,VALID,0,VALID,100,VALID,-0.0339617,VALID,19.2412,VALID,147,VALID,0.957292,
2005-02-01, 01:56:00,VALID,917.616,VALID,0,VALID,100,VALID,-0.0849042,VALID,19.2519,VALID,142,VALID,0.958789,
2005-02-01, 01:57:00,VALID,917.606,VALID,0,VALID,100,VALID,-0.0679233,VALID,19.2417,VALID,135,VALID,0.886433,
2005-02-01, 01:58:00,VALID,917.59,VALID,0,VALID,100,VALID,-0.0509425,VALID,19.2318,VALID,122,VALID,1.2327,
2005-02-01, 01:59:00,VALID,917.599,VALID,0,VALID,100,VALID,-0.0679233,VALID,19.2181,VALID,140,VALID,1.13281,
2005-02-01, 02:00:00,VALID,917.609,VALID,0,VALID,100,VALID,-0.0169808,VALID,19.2323,VALID,133,VALID,1.56678,
2005-02-01, 02:01:00,VALID,917.606,VALID,0,VALID,100,VALID,-0.0509425,VALID,19.2154,VALID,123,VALID,1.00959,
2005-02-01, 02:02:00,VALID,917.609,VALID,0,VALID,100,VALID,-0.0509425,VALID,19.2094,VALID,132,VALID,1.18677,
2005-02-01, 02:03:00,VALID,917.607,VALID,0,VALID,100,VALID,-0.0679233,VALID,19.1933,VALID,114,VALID,1.05621,
2005-02-01, 02:04:00,VALID,917.607,VALID,0,VALID,100,VALID,-0.0509425,VALID,19.1836,VALID,122,VALID,0.866629,
2005-02-01, 02:05:00,VALID,917.596,VALID,0,VALID,100,VALID,-0.0679233,VALID,19.1704,VALID,155,VALID,0.918146,
2005-02-01, 02:06:00,VALID,917.602,VALID,0,VALID,100,VALID,-0.0679233,VALID,19.1833,VALID,146,VALID,0.561133,
2005-02-01, 02:07:00,VALID,917.61,VALID,0,VALID,100,VALID,-0.0509425,VALID,19.1702,VALID,154,VALID,0.519626,
2005-02-01, 02:08:00,VALID,917.61,VALID,0,VALID,100,VALID,-0.0509425,VALID,19.1838,VALID,135,VALID,0.841933,
2005-02-01, 02:09:00,VALID,917.61,VALID,0,VALID,100,VALID,-0.0509425,VALID,19.1674,VALID,126,VALID,1.19513,
2005-02-01, 02:10:00,VALID,917.621,VALID,0,VALID,100,VALID,-0.0509425,VALID,19.1418,VALID,91,VALID,0.79707,
2005-02-01, 02:11:00,VALID,917.632,VALID,0,VALID,100,VALID,-0.0169808,VALID,19.122,VALID,79,VALID,0.677401,
2005-02-01, 02:12:00,VALID,917.639,VALID,0,VALID,100,VALID,-0.0169808,VALID,19.0927,VALID,95,VALID,0.606771,
2005-02-01, 02:13:00,VALID,917.645,VALID,0,VALID,100,VALID,-0.0339617,VALID,19.0765,VALID,91,VALID,1.10696,
2005-02-01, 02:14:00,VALID,917.654,VALID,0,VALID,100,VALID,-0.0509425,VALID,19.0639,VALID,107,VALID,0.408798,
2005-02-01, 02:15:00,VALID,917.678,VALID,0,VALID,100,VALID,-0.0509425,VALID,19.0644,VALID,81,VALID,0.561967,
2005-02-01, 02:16:00,VALID,917.67,VALID,0,VALID,100,VALID,-0.0679233,VALID,19.051,VALID,78,VALID,0.460938,
2005-02-01, 02:17:00,VALID,917.656,VALID,0,VALID,100,VALID,-0.0509425,VALID,19.0348,VALID,47,VALID,0.713118,
2005-02-01, 02:18:00,VALID,917.634,VALID,0,VALID,100,VALID,-0.0509425,VALID,19.0189,VALID,72,VALID,0.917515,
2005-02-01, 02:19:00,VALID,917.617,VALID,0,VALID,100,VALID,-0.0679233,VALID,18.9901,VALID,83,VALID,0.957933,
2005-02-01, 02:20:00,VALID,917.599,VALID,0,VALID,100,VALID,-0.0509425,VALID,18.9735,VALID,82,VALID,1.05632,
2005-02-01, 02:21:00,VALID,917.561,VALID,0,VALID,100,VALID,-0.0339617,VALID,18.9543,VALID,83,VALID,0.854048,
2005-02-01, 02:22:00,VALID,917.545,VALID,0,VALID,100,VALID,-0.0169808,VALID,18.9412,VALID,87,VALID,0.731179,
2005-02-01, 02:23:00,VALID,917.523,VALID,0,VALID,100,VALID,-0.0509425,VALID,18.9255,VALID,101,VALID,0.840774,
2005-02-01, 02:24:00,VALID,917.505,VALID,0,VALID,100,VALID,-0.0169808,VALID,18.9191,VALID,116,VALID,0.835405,
2005-02-01, 02:25:00,VALID,917.497,VALID,0,VALID,100,VALID,-0.0339617,VALID,18.9161,VALID,124,VALID,0.542878,
2005-02-01, 02:26:00,VALID,917.501,VALID,0,VALID,100,VALID,-0.0339617,VALID,18.9191,VALID,111,VALID,0.772236,
2005-02-01, 02:27:00,VALID,917.478,VALID,0,VALID,100,VALID,-0.0339617,VALID,18.9156,VALID,113,VALID,0.486506,
2005-02-01, 02:28:00,VALID,917.474,VALID,0,VALID,100,VALID,-0.0509425,VALID,18.9287,VALID,121,VALID,0.743521,
2005-02-01, 02:29:00,VALID,917.457,VALID,0,VALID,100,VALID,-0.0339617,VALID,18.9156,VALID,133,VALID,0.861683,
2005-02-01, 02:30:00,VALID,917.445,VALID,0,VALID,100,VALID,-0.0339617,VALID,18.9322,VALID,124,VALID,0.638086,
2005-02-01, 02:31:00,VALID,917.425,VALID,0,VALID,100,VALID,-0.0679233,VALID,18.9317,VALID,118,VALID,0.854167,
2005-02-01, 02:32:00,VALID,917.414,VALID,0,VALID,100,VALID,-0.0509425,VALID,18.9191,VALID,125,VALID,0.835211,
2005-02-01, 02:33:00,VALID,917.41,VALID,0,VALID,100,VALID,-0.0509425,VALID,18.9188,VALID,111,VALID,1.07754,
2005-02-01, 02:34:00,VALID,917.4,VALID,0,VALID,100,VALID,-0.0339617,VALID,18.8995,VALID,111,VALID,0.885099,
2005-02-01, 02:35:01,VALID,917.402,VALID,0,VALID,100,VALID,-0.0509425,VALID,18.893,VALID,105,VALID,1.05868,
2005-02-01, 02:36:00,VALID,917.413,VALID,0,VALID,100,VALID,-0.0169808,VALID,18.8806,VALID,99,VALID,0.916159,
2005-02-01, 02:37:00,VALID,917.427,VALID,0,VALID,100,VALID,-0.0169808,VALID,18.8644,VALID,84,VALID,1.0307,
2005-02-01, 02:38:00,VALID,917.414,VALID,0,VALID,100,VALID,-0.0169808,VALID,18.8476,VALID,79,VALID,0.98819,
2005-02-01, 02:39:00,VALID,917.411,VALID,0,VALID,100,VALID,0,VALID,18.8287,VALID,83,VALID,1.02671,
2005-02-01, 02:40:00,VALID,917.393,VALID,0,VALID,100,VALID,-0.0509425,VALID,18.7934,VALID,90,VALID,0.933424,
2005-02-01, 02:41:00,VALID,917.377,VALID,0,VALID,100,VALID,-0.0339617,VALID,18.7832,VALID,107,VALID,1.25391,
2005-02-01, 02:42:00,VALID,917.354,VALID,0,VALID,100,VALID,-0.0169808,VALID,18.7673,VALID,92,VALID,0.790923,
2005-02-01, 02:43:00,VALID,917.333,VALID,0,VALID,100,VALID,-0.0849042,VALID,18.7546,VALID,102,VALID,0.829427,
2005-02-01, 02:44:01,VALID,917.324,VALID,0,VALID,100,VALID,-0.0509425,VALID,18.7447,VALID,107,VALID,1.16916,
2005-02-01, 02:45:00,VALID,917.312,VALID,0,VALID,100,VALID,-0.0169808,VALID,18.7452,VALID,102,VALID,0.80564,
2005-02-01, 02:46:00,VALID,917.298,VALID,0,VALID,100,VALID,-0.0509425,VALID,18.739,VALID,106,VALID,0.905469,
2005-02-01, 02:47:00,VALID,917.298,VALID,0,VALID,100,VALID,-0.0339617,VALID,18.7251,VALID,107,VALID,0.851749,
2005-02-01, 02:48:01,VALID,917.295,VALID,0,VALID,100,VALID,-0.0509425,VALID,18.7387,VALID,117,VALID,0.877148,
2005-02-01, 02:49:01,VALID,917.284,VALID,0,VALID,100,VALID,-0.0849042,VALID,18.7521,VALID,104,VALID,0.730469,
2005-02-01, 02:50:00,VALID,917.278,VALID,0,VALID,100,VALID,-0.0679233,VALID,18.7581,VALID,123,VALID,1.08775,
2005-02-01, 02:51:01,VALID,917.255,VALID,0,VALID,100,VALID,-0.0679233,VALID,18.7809,VALID,133,VALID,1.59896,
2005-02-01, 02:52:00,VALID,917.27,VALID,0,VALID,100,VALID,-0.0849042,VALID,18.8132,VALID,141,VALID,1.46403,
2005-02-01, 02:53:00,VALID,917.267,VALID,0,VALID,100,VALID,-0.0849042,VALID,18.8363,VALID,125,VALID,1.26302,
2005-02-01, 02:54:00,VALID,917.255,VALID,0,VALID,100,VALID,-0.0849042,VALID,18.8356,VALID,110,VALID,1.14826,
2005-02-01, 02:55:01,VALID,917.248,VALID,0,VALID,100,VALID,-0.0679233,VALID,18.8227,VALID,122,VALID,1.20865,
2005-02-01, 02:56:01,VALID,917.249,VALID,0,VALID,100,VALID,-0.0679233,VALID,18.8194,VALID,118,VALID,1.25688,
2005-02-01, 02:57:01,VALID,917.225,VALID,0,VALID,100,VALID,-0.0339617,VALID,18.819,VALID,124,VALID,1.43617,
2005-02-01, 02:58:00,VALID,917.204,VALID,0,VALID,100,VALID,-0.0169808,VALID,18.8227,VALID,124,VALID,1.07546,
2005-02-01, 02:59:00,VALID,917.198,VALID,0,VALID,100,VALID,-0.0679233,VALID,18.8065,VALID,124,VALID,1.09284,
2005-02-01, 03:00:00,VALID,917.214,VALID,0,VALID,100,VALID,-0.0849042,VALID,18.7968,VALID,126,VALID,1.0599,
2005-02-01, 03:01:01,VALID,917.202,VALID,0,VALID,100,VALID,-0.101885,VALID,18.774,VALID,129,VALID,0.730378,
2005-02-01, 03:02:00,VALID,917.222,VALID,0,VALID,100,VALID,-0.0849042,VALID,18.7846,VALID,113,VALID,0.799414,
2005-02-01, 03:03:01,VALID,917.226,VALID,0,VALID,100,VALID,-0.101885,VALID,18.7611,VALID,124,VALID,1.02877,
2005-02-01, 03:04:00,VALID,917.227,VALID,0,VALID,100,VALID,-0.0679233,VALID,18.7648,VALID,123,VALID,0.997461,
2005-02-01, 03:05:00,VALID,917.212,VALID,0,VALID,100,VALID,-0.0339617,VALID,18.7509,VALID,129,VALID,1.14008,
2005-02-01, 03:06:00,VALID,917.204,VALID,0,VALID,100,VALID,0.0339617,VALID,18.7438,VALID,129,VALID,1.2331,
2005-02-01, 03:07:00,VALID,917.188,VALID,0,VALID,100,VALID,0.0339617,VALID,18.7438,VALID,129,VALID,1.20461,
2005-02-01, 03:08:01,VALID,917.168,VALID,0,VALID,100,VALID,0.0169808,VALID,18.7442,VALID,130,VALID,0.879724,
2005-02-01, 03:09:00,VALID,917.163,VALID,0,VALID,100,VALID,0,VALID,18.7343,VALID,127,VALID,1.04929,
2005-02-01, 03:10:00,VALID,917.148,VALID,0,VALID,100,VALID,0.0169808,VALID,18.7249,VALID,123,VALID,0.544567,
2005-02-01, 03:11:01,VALID,917.145,VALID,0,VALID,100,VALID,0.0169808,VALID,18.6956,VALID,89,VALID,0.938058,
2005-02-01, 03:12:00,VALID,917.137,VALID,0,VALID,100,VALID,0.0169808,VALID,18.6695,VALID,94,VALID,0.802827,
2005-02-01, 03:13:01,VALID,917.133,VALID,0,VALID,100,VALID,0.0339617,VALID,18.6635,VALID,97,VALID,0.985224,
2005-02-01, 03:14:00,VALID,917.124,VALID,0,VALID,100,VALID,0.0339617,VALID,18.6536,VALID,84,VALID,1.04288,
2005-02-01, 03:15:00,VALID,917.112,VALID,0,VALID,100,VALID,0.0169808,VALID,18.6273,VALID,77,VALID,0.914971,
2005-02-01, 03:16:00,VALID,917.096,VALID,0,VALID,100,VALID,0.0339617,VALID,18.5568,VALID,50,VALID,1.44568,
2005-02-01, 03:17:00,VALID,917.097,VALID,0,VALID,100,VALID,0.0679233,VALID,18.518,VALID,75,VALID,0.947088,
2005-02-01, 03:18:00,VALID,917.087,VALID,0,VALID,100,VALID,0.0679233,VALID,18.515,VALID,86,VALID,0.740473,
2005-02-01, 03:19:00,VALID,917.069,VALID,0,VALID,100,VALID,0.0339617,VALID,18.492,VALID,73,VALID,0.513757,
2005-02-01, 03:20:00,VALID,917.053,VALID,0,VALID,100,VALID,0,VALID,18.4475,VALID,68,VALID,0.387767,
2005-02-01, 03:21:00,VALID,917.049,VALID,0,VALID,100,VALID,-0.0849042,VALID,18.4258,VALID,83,VALID,0.449805,
2005-02-01, 03:22:00,VALID,917.049,VALID,0,VALID,100,VALID,-0.0849042,VALID,18.4357,VALID,91,VALID,0.432986,
2005-02-01, 03:23:01,VALID,917.048,VALID,0,VALID,100,VALID,-0.101885,VALID,18.4394,VALID,109,VALID,0.568824,
2005-02-01, 03:24:00,VALID,917.049,VALID,0,VALID,100,VALID,-0.118866,VALID,18.4486,VALID,137,VALID,0.614281,
2005-02-01, 03:25:00,VALID,917.058,VALID,0,VALID,100,VALID,-0.101885,VALID,18.4452,VALID,149,VALID,0.466082,
2005-02-01, 03:26:00,VALID,917.068,VALID,0,VALID,100,VALID,-0.0849042,VALID,18.4459,VALID,150,VALID,0.459302,
2005-02-01, 03:27:01,VALID,917.081,VALID,0,VALID,100,VALID,-0.101885,VALID,18.4556,VALID,138,VALID,0.512649,
2005-02-01, 03:28:00,VALID,917.08,VALID,0,VALID,100,VALID,-0.0849042,VALID,18.459,VALID,143,VALID,0.573289,
2005-02-01, 03:29:00,VALID,917.089,VALID,0,VALID,100,VALID,-0.118866,VALID,18.4549,VALID,142,VALID,0.369474,
2005-02-01, 03:30:01,VALID,917.109,VALID,0,VALID,100,VALID,-0.0849042,VALID,18.4482,VALID,131,VALID,0.312691,
2005-02-01, 03:31:01,VALID,917.128,VALID,0,VALID,100,VALID,-0.0679233,VALID,18.4323,VALID,130,VALID,0.130504,
2005-02-01, 03:32:01,VALID,917.122,VALID,0,VALID,100,VALID,-0.0679233,VALID,18.4069,VALID,125,VALID,0.372113,
2005-02-01, 03:33:00,VALID,917.117,VALID,0,VALID,100,VALID,-0.0679233,VALID,18.3942,VALID,124,VALID,0.0844494,
2005-02-01, 03:34:00,VALID,917.113,VALID,0,VALID,100,VALID,-0.101885,VALID,18.3749,VALID,124,VALID,0,
2005-02-01, 03:35:00,VALID,917.091,VALID,0,VALID,100,VALID,-0.0169808,VALID,18.3511,VALID,124,VALID,0.0952381,
2005-02-01, 03:36:00,VALID,917.095,VALID,0,VALID,100,VALID,0,VALID,18.3253,VALID,124,VALID,0.219792,
2005-02-01, 03:37:00,VALID,917.09,VALID,0,VALID,100,VALID,0.0169808,VALID,18.2766,VALID,124,VALID,0.146129,